Weather in Chernousovo

Russia / Sverdlovsk Oblast     56°34′36″N   61°14′54″E
temp.,
°C
wind,
m/s
gust,
m/s
humid.,
%
clouds,
%
prec.,
mm/h
press.,
hPa
HPBL,
m
24 january, sun
sun2423:00−29sse3696100 0.0 1036232
02:00−28sse3697100 0.0 1035193
05:00−28se369899 0.0 1035164
08:00−27se3698100 0.0 1034188
11:00−25sse4798100 0.0 1034251
14:00−21sse4897100 0.1 1032329
17:00−20sse4998100 0.6 1030359
20:00−17sse4896100 0.9 1028369
25 january, mon
mon2523:00−15s3596100 1.8 1027204
02:00−14sse1297100 0.4 102642
05:00−12nnw019799 0.4 102721
08:00−13nnw119797 0.0 102820
11:00−9s119698 0.1 102942
14:00−4s239799 0.6 1028113
17:00+1wsw41098100 0.8 1029442
20:00−1wsw4128872 0.0 1029447
26 january, tue
tue2623:00−3wsw3109282 0.0 1029285
02:00−2w41190100 0.2 1029606
05:00−2w41191100 0.4 1029646
08:00−4w4129097 0.0 1029571
11:00−3w4128889 0.0 1029551
14:00−3w4108863 0.0 1029629
17:00−4wsw399181 0.0 1028293
20:00−4wsw31091100 0.0 1028351
27 january, wed
wed2723:00−4wsw41288100 0.0 1027595
02:00−4wsw31191100 0.0 1027533
05:00−4wsw31189100 0.0 1027534
08:00−4wsw31287100 0.0 1027477
11:00−5wsw31188100 0.0 1027512
14:00−1wsw4128376 0.0 1027686
17:00−4sw3108787 0.0 1026314
20:00−5wsw41288100 0.0 1027503
28 january, thu
thu2823:00−7wsw3119180 0.0 1027320
02:00−9wsw359316 0.0 1028125
05:00−10sw369321 0.0 102993
08:00−10sw369293 0.0 1029112
11:00−7sw388873 0.0 1029247
14:00−2sw3885100 0.0 1028408
17:00−3ssw3590100 0.0 1027119
20:00−4ssw2388100 0.0 102759